Abilene, TX

8:18 PM CST on January 17, 2018 (GMT -0600)
Abilene Regional

Weather History for KABI - August, 2014

Change the Weather History Date:

Thursday, August 14, 2014

  Actual Average Record
Temperature  
Mean Temperature 85 °F 83 °F  
Max Temperature 98 °F 95 °F 104 °F (1969)
Min Temperature 72 °F 72 °F 63 °F (2004)
Degree Days  
Heating Degree Days 0 0  
Month to date heating degree days 0 0  
Since 1 June heating degree days 0 1  
Since 1 July heating degree days 0 0  
Cooling Degree Days 20 18  
Month to date cooling degree days 273 264  
Year to date cooling degree days 1835 1657  
Since 1 June cooling degree days 1321 1260  
Growing Degree Days 36 (Base 50)    
Moisture  
Dew Point 56 °F    
Average Humidity 41    
Maximum Humidity 57    
Minimum Humidity 24    
Precipitation  
Precipitation 0.00 in 0.08 in 3.37 in (1985)
Month to date precipitation 0.00 1.12  
Year to date precipitation 10.20 15.49  
Sea Level Pressure  
Sea Level Pressure 29.96 in    
Wind  
Wind Speed 10 mph (SSE)    
Max Wind Speed 18 mph    
Max Gust Speed 25 mph    
Visibility 10 miles    
Events      
T = Trace of Precipitation, MM = Missing Value Source: NWS Daily Summary

Daily Weather History Graph

Daily Weather History Graph

Search for Another Location

Airport or City:

Trip Planner

Search our weather history database for the weather conditions in past years. The results will help you decide how hot, cold, wet, or windy it might be!

Date:

Astronomy

Aug. 14, 2014 Rise Set
Actual Time 7:02 AM CDT 8:24 PM CDT
Civil Twilight 6:36 AM CDT 8:50 PM CDT
Nautical Twilight 6:05 AM CDT 9:20 PM CDT
Astronomical Twilight 5:32 AM CDT 9:53 PM CDT
Moon 11:08 PM CDT (8/14) 11:22 AM CDT (8/14)
Length of Visible Light 14h 13m
Length of Day
13h 22m
Waning Gibbous, 79% of the Moon is Illuminated
Aug 14
Waning Gibbous
Aug 17
Last Quarter
Aug 25
New
Sep 2
First Quarter
Sep 8
Full

Hourly Weather History & Observations

Time (CDT) Temp. Heat Index Dew Point Humidity Pressure Visibility Wind Dir Wind Speed Gust Speed Precip Events Conditions
12:52 AM 79.0 °F - 57.0 °F 47% 30.00 in 10.0 mi SSE 6.9 mph - N/A   Clear
1:52 AM 78.1 °F - 57.0 °F 48% 29.99 in 10.0 mi SSE 9.2 mph - N/A   Clear
2:52 AM 75.9 °F - 57.0 °F 52% 29.98 in 10.0 mi SSE 8.1 mph - N/A   Clear
3:52 AM 75.9 °F - 57.0 °F 52% 29.97 in 10.0 mi SSE 10.4 mph - N/A   Clear
4:52 AM 75.9 °F - 55.9 °F 50% 29.98 in 10.0 mi South 6.9 mph - N/A   Clear
5:52 AM 75.0 °F - 57.0 °F 53% 29.98 in 10.0 mi South 6.9 mph - N/A   Clear
6:52 AM 73.9 °F - 57.0 °F 55% 30.00 in 10.0 mi South 5.8 mph - N/A   Clear
7:52 AM 73.9 °F - 57.9 °F 57% 30.01 in 10.0 mi South 4.6 mph - N/A   Clear
8:52 AM 81.0 °F 81.3 °F 59.0 °F 47% 30.02 in 4.0 mi Variable 4.6 mph - N/A   Haze
9:52 AM 84.0 °F 83.5 °F 57.9 °F 41% 30.02 in 10.0 mi SSW 9.2 mph - N/A   Clear
10:52 AM 89.1 °F 88.0 °F 57.9 °F 35% 30.01 in 10.0 mi SSW 9.2 mph - N/A   Clear
11:52 AM 91.9 °F 90.3 °F 55.9 °F 30% 30.00 in 10.0 mi West 8.1 mph - N/A   Clear
12:52 PM 93.0 °F 91.1 °F 55.0 °F 28% 29.98 in 10.0 mi Variable 6.9 mph - N/A   Clear
1:52 PM 93.9 °F 92.0 °F 55.0 °F 27% 29.96 in 10.0 mi Variable 6.9 mph - N/A   Clear
2:52 PM 98.1 °F 96.4 °F 55.0 °F 24% 29.94 in 10.0 mi SSE 11.5 mph - N/A   Clear
3:52 PM 97.0 °F 94.6 °F 54.0 °F 23% 29.91 in 10.0 mi SSW 8.1 mph - N/A   Clear
4:52 PM 97.0 °F 95.0 °F 55.0 °F 24% 29.90 in 10.0 mi ESE 11.5 mph 16.1 mph N/A   Clear
5:52 PM 96.1 °F 94.1 °F 55.0 °F 25% 29.89 in 10.0 mi SSE 17.3 mph 25.3 mph N/A   Clear
6:52 PM 95.0 °F 93.0 °F 55.0 °F 26% 29.89 in 10.0 mi SSE 10.4 mph - N/A   Clear
7:52 PM 93.0 °F 91.1 °F 55.0 °F 28% 29.89 in 10.0 mi SE 13.8 mph - N/A   Clear
8:52 PM 90.0 °F 88.1 °F 55.9 °F 31% 29.90 in 10.0 mi SE 12.7 mph - N/A   Clear
9:52 PM 87.1 °F 85.9 °F 57.0 °F 36% 29.92 in 10.0 mi SE 12.7 mph - N/A   Clear
10:52 PM 84.9 °F 84.2 °F 57.9 °F 40% 29.93 in 10.0 mi SE 18.4 mph - N/A   Clear
11:52 PM 84.0 °F 83.5 °F 57.9 °F 41% 29.93 in 10.0 mi SE 15.0 mph - N/A   Clear